Regional Weather Roundup
Issued by NWS

Home | Current Version | Previous Version | Text Only | Print | Product List | Glossary Off
Versions: 1 2 3 4 5 6 7 8 9 10 11 12 13 14 15 16 17 18 19 20 21 22 23 24 25 26 27 28 29 30 31 32 33 34 35 36 37 38 39 40 41 42 43 44 45 46 47 48 49 50

000
ASUS43 KFSD 032110
RWRSD

WEATHER ROUNDUP FOR SOUTH DAKOTA
NATIONAL WEATHER SERVICE SIOUX FALLS SD
400 PM CDT SUN MAY 03 2015

NOTE: "FAIR" INDICATES FEW OR NO CLOUDS BELOW 12,000 FEET WITH NO
SIGNIFICANT WEATHER AND/OR OBSTRUCTIONS TO VISIBILITY.


SDZ001>005-009-010-012>017-032200-
NORTHWEST AND NORTH CENTRAL SOUTH DAKOTA

CITY           SKY/WX    TMP DP  RH WIND       PRES   REMARKS
BUFFALO          N/A     56  36  47 CALM      30.00S
FAITH            N/A     66  29  24 N14G25    30.01S
MOBRIDGE       PTSUNNY   67  29  24 N15       29.97F
$$

SDZ012>016-024>037-041>051-057-063-072>074-032200-
SOUTHWEST AND SOUTH CENTRAL SOUTH DAKOTA

CITY           SKY/WX    TMP DP  RH WIND       PRES   REMARKS
RAPID CTY ARPT SUNNY     68  36  30 N13       30.00S
PIERRE         MOSUNNY   74  34  23 N20G26    29.93S
CUSTER         MOSUNNY   59  35  40 E13G20    30.04S
ELLSWORTH AFB  SUNNY     66  37  34 NE8       30.00S
PHILIP         SUNNY     73  34  23 N13G24    29.96S
PINE RIDGE     SUNNY     70  38  31 NE15G24   29.97F
SPEARFISH      PTSUNNY   59  39  47 NE12      30.05S
WINNER         FAIR      76  36  23 NE22G32   29.92R
$$

SDZ004>011-016>023-039-040-032200-
NORTHEAST SOUTH DAKOTA

CITY           SKY/WX    TMP DP  RH WIND       PRES   REMARKS
ABERDEEN       CLOUDY    69  30  23 N21       29.96R
WATERTOWN      PTSUNNY   72  34  24 NE15G25   29.94R
BROOKINGS      CLOUDY    66  39  37 N28       29.88F
SISSETON         N/A     69  33  26 NE18G29   29.92R
$$

SDZ017-020-022-023-036>040-048>070-032200-
SOUTHEAST SOUTH DAKOTA

CITY           SKY/WX    TMP DP  RH WIND       PRES   REMARKS
SIOUX FALLS    PTSUNNY   73  45  36 N29G38    29.83R
HURON          MOSUNNY   73  35  25 NE18G31   29.88F
CHAMBERLAIN    PTSUNNY   72  36  27 NE17G29   29.90R
MITCHELL       CLOUDY    72  38  29 NE29G35   29.84F
YANKTON        PTSUNNY   82  54  36 N20G25    29.75S
$$

ABBREVIATIONS USED IN REMARKS
   TC - TEMPERATURE IN CELSIUS
  WCI - WIND CHILL INDEX
   HX - HEAT INDEX
  VSB - VISIBILITY




USA.gov is the U.S. government's official web portal to all federal, state and local government web resources and services.